SCP
0 0 0 0 0 0 0 0 0 0 0 0 -0 -0 -0 -0 -0 0 0 0 -0 -0 -0 0 0 -0 -0 0 0 -0 0 0 0 0 0 0 0 0 0 0 0 0 0 0 0 0 0 0 0 0 0 0 0 0
0 0 0 0 0 0 0 0 0 0 0 -0 -0 -0 -0 -0 0 0 0 -0 -0 0 -0 -0 -0 -0 -0 0 0 0 0 0 0 0 0 0 0 0 0 0 0 0 0 0 0 0 0 -0 0 0 0 0 -0 -0
0 0 0 0 0 0 0 0 0 0 0 -0 -0 0 -0 0 -0 0 -0 -0 0 0 -0 0 0 -0 -0 0 -0 0 0 0 0 0 0 0 0 0 0 0 0 0 0 0 0 0 -0 -0 -0 -0 -0 -0 -0 -0
0 0 0 0 0 0 0 0 0 0 -0 0 0 0 0 -0 -0 -0 -0 0 -0 0 -0 0 -0 0 -0 -0 0 0 0 0 0 0 0 0 0 0 0 0 0 0 0 0 0 -0 -0 -0 -0 -0 -0 -0 -0 -0
0 0 0 0 0 0 0 0 0 0 0 -0 -0 -0 -0 -0 -0 -0 0 -0 0 0 0 -0 -0 -0 -0 -0 -0 0 0 0 0 0 0 0 0 0 0 0 0 0 0 0 0 0 -0 -0 -0 -0 -0 -0 -0 -0
0 0 0 0 0 0 0 0 0 0 0 0 -0 -0 -0 -0 -0 -0 -0 -0 -0 0 0 0 0 0 -0 -0 -0 0 0 0 0 0 0 0 0 0 0 0 0 0 0 0 0 0 -0 -0 -0 -0 -0 -0 -0 -0
0 0 0 0 0 0 0 -0 0 0 0 -0 -0 -0 -0 -0 0 -0 0 -0 0 -0 0 0 0 0 0 -0 0 0 0 0 0 0 0 0 0 0 0 0 0 0 0 0 0 -0 -0 -0 0 -0 -0 -0 -0 -0
0 0 0 0 0 0 0 -0 0 0 0 -0 -0 -0 -0 -0 -0 -0 -0 0 0 0 0 0 0 0 0 0 0 0 0 0 0 0 0 0 0 0 0 0 0 0 0 0 0 0 0 0 0 0 0 0 0 0
0 0 0 0 0 -0 -0 0 0 0 -0 -0 -0 -0 0 0 -0 -0 -0 0 0 0 0 0 0 0 0 0 -0 0 0 0 0 0 0 0 0 0 0 0 0 0 0 -0 -0 -0 0 0 0 -0 -0 0 0 0
0 0 0 0 -0 -0 -0 0 0 -0 -0 -0 0 0 0 0 0 -0 0 0 0 0 0 0 0 0 0 0 -0 0 0 0 0 0 0 0 0 0 0 0 0 0 0 0 -0 0 0 -0 0 0 0 0 0 0
0 0 0 -0 -0 -0 0 0 -0 -0 -0 -0 -0 -0 -0 -0 0 0 0 0 0 0 0 0 -0 -0 -0 -0 0 0 0 0 0 0 0 0 0 0 0 0 0 0 0 0 0 0 0 0 0 0 0 0 0 0
0 0 -0 -0 -0 -0 0 0 -0 0 -0 -0 -0 -0 -0 -0 0 0 0 0 -0 -0 0 -0 -0 -0 -0 0 0 0 0 0 0 0 0 0 0 0 0 0 0 -0 0 0 -0 0 0 0 0 0 0 0 0 0
0 -0 0 0 0 -0 0 0 -0 -0 -0 0 -0 0 0 -0 0 0 0 0 0 0 -0 -0 -0 0 0 0 0 0 0 0 0 0 -0 0 0 0 0 0 0 0 -0 0 -0 -0 0 0 0 0 0 0 0 0
0 0 -0 -0 -0 -0 0 -0 -0 0 0 -0 0 -0 0 0 -0 0 0 0 0 0 -0 -0 -0 -0 -0 -0 0 0 0 0 0 0 0 0 -0 -0 0 0 0 0 0 0 -0 -0 -0 0 0 0 0 0 0 0
0 -0 -0 -0 0 -0 -0 -0 -0 -0 -0 -0 -0 0 0 -0 0 0 0 0 0 0 -0 -0 -0 0 0 0 0 0 0 0 0 0 0 0 -0 0 0 -0 -0 -0 -0 -0 -0 -0 -0 -0 -0 0 0 0 0 0
-0 -0 0 -0 -0 -0 -0 -0 -0 0 0 0 -0 0 -0 0 0 0 0 -0 0 0 0 0 0 -0 -0 0 0 0 0 0 0 0 0 0 0 0 0 -0 -0 -0 -0 -0 -0 -0 -0 -0 -0 -0 -0 -0 -0 -0
-0 0 0 -0 -0 -0 -0 0 0 -0 0 0 0 0 0 0 0 0 -0 -0 -0 -0 0 0 0 0 0 0 0 0 0 0 0 0 0 0 0 0 -0 -0 -0 -0 -0 -0 -0 -0 -0 -0 -0 0 -0 -0 -0 -0
0 0 0 -0 -0 -0 0 0 0 0 0 -0 0 0 -0 0 -0 0 -0 -0 -0 -0 -0 0 0 0 0 0 0 0 0 0 0 0 0 0 0 0 0 -0 -0 -0 -0 -0 -0 -0 0 0 0 0 0 0 0 0
0 0 -0 -0 -0 0 0 0 0 0 0 0 0 0 -0 0 0 -0 0 0 -0 -0 -0 0 0 0 0 0 0 0 0 0 0 0 0 0 0 0 0 0 -0 -0 -0 -0 0 0 0 0 0 0 0 -0 0 0
-0 -0 -0 0 0 0 0 0 0 0 0 0 -0 0 0 -0 0 0 0 0 -0 -0 -0 -0 0 -0 0 0 0 0 0 0 0 0 0 0 0 0 0 0 0 0 0 0 0 0 0 0 0 0 0 -0 0 0
0 0 0 0 0 0 0 0 0 0 0 0 -0 -0 -0 0 0 -0 -0 -0 -0 0 0 -0 0 0 0 0 0 0 0 0 -0 0 0 0 0 0 0 0 0 0 0 0 0 0 0 0 -0 0 0 0 0 0
0 0 0 0 0 0 0 0 0 0 0 0 0 0 0 0 0 -0 -0 -0 0 -0 -0 -0 0 0 0 0 0 -0 -0 0 -0 -0 0 -0 0 0 -0 0 0 0 0 0 -0 0 0 -0 -0 0 -0 0 0 0
0 0 0 0 0 0 0 0 0 0 0 0 0 0 -0 -0 -0 -0 -0 -0 -0 -0 -0 -0 0 0 -0 0 0 0 0 -0 -0 -0 -0 -0 0 0 0 0 -0 0 0 -0 -0 -0 -0 -0 -0 -0 0 0 0 0
0 0 0 0 0 0 0 0 0 0 0 0 0 0 -0 -0 -0 -0 -0 -0 0 -0 0 0 0 -0 -0 0 -0 0 0 -0 -0 -0 -0 0 0 0 0 0 0 0 0 0 -0 -0 -0 -0 0 0 0 0 0 0
-0 0 0 0 -0 -0 -0 0 0 0 0 0 0 0 0 0 -0 -0 -0 -0 0 0 0 0 0 0 0 -0 0 0 0 0 0 0 -0 0 0 0 0 0 0 0 0 0 0 0 0 0 0 0 0 0 0 0
0 0 -0 0 0 -0 -0 0 0 0 0 0 0 0 0 0 0 0 0 0 -0 0 0 0 0 0 0 0 0 0 0 0 -0 -0 0 -0 0 0 0 0 0 0 0 0 0 0 0 0 0 0 0 0 0 0
-0 0 0 0 0 -0 -0 0 0 0 0 0 0 0 0 0 0 0 0 0 -0 0 0 0 0 0 0 0 -0 0 0 0 -0 -0 -0 -0 0 0 0 0 0 0 0 -0 -0 0 0 0 0 0 0 0 0 0
0 0 0 0 0 0 -0 0 0 0 0 0 -0 0 0 0 0 -0 -0 0 0 0 0 0 0 0 0 0 -0 0 0 -0 -0 -0 -0 -0 -0 0 0 0 -0 -0 -0 -0 0 0 0 0 0 0 0 0 0 0
-0 0 0 -0 -0 0 0 0 0 0 0 0 0 0 0 0 0 0 0 0 0 0 0 0 0 0 0 0 -0 0 0 -0 -0 -0 -0 -0 0 0 -0 -0 -0 -0 -0 -0 -0 0 0 0 0 0 0 0 0 0
0 -0 0 0 0 0 0 0 0 0 0 0 0 0 0 0 -0 0 0 0 0 0 0 0 0 0 0 0 0 0 -0 -0 -0 -0 -0 -0 -0 -0 -0 -0 0 0 0 0 0 0 0 0 0 0 0 0 0 0
0 0 0 0 0 0 0 0 0 0 0 0 -0 -0 -0 0 0 0 0 0 0 0 0 0 0 0 0 0 0 0 0 0 0 0 0 -0 -0 0 0 0 0 0 0 0 0 0 0 0 0 0 0 0 0 0
0 0 0 0 0 0 0 0 -0 -0 -0 -0 -0 -0 -0 0 0 0 0 0 0 0 0 0 0 0 0 0 0 0 0 0 0 0 0 0 0 0 0 0 0 0 0 0 0 0 0 0 0 0 0 0 0 0
-0 -0 0 0 0 0 0 -0 -0 -0 -0 -0 -0 -0 -0 0 0 0 0 0 0 0 0 0 0 0 0 0 0 0 0 0 0 0 0 0 0 0 0 0 0 0 0 0 0 0 0 0 0 0 0 0 0 0
Wind_Speed_500mb
49 50 47 44 47 52 50 45 46 44 46 47 49 47 39 35 38 43 44 30 22 12 53 18 21 33 40 22 9 32 18 6 6 10 10 7 6 9 22 24 20 11 14 14 9 13 8 9 15 4 27 36 43 47
49 48 45 44 46 52 49 44 48 47 49 50 50 46 35 33 37 42 43 31 27 27 49 55 41 40 38 40 32 19 22 15 11 6 10 5 5 10 24 23 20 11 10 6 8 13 22 42 43 52 48 47 44 48
49 48 45 44 45 49 52 46 50 52 49 50 52 45 37 38 37 38 47 41 23 22 43 17 9 15 22 21 18 11 11 24 21 34 7 5 5 10 9 18 25 12 18 11 17 22 32 44 59 58 53 53 48 44
49 45 45 45 47 52 52 44 50 52 51 50 48 41 40 41 42 38 39 36 30 14 8 10 16 31 27 20 23 25 30 31 35 34 4 4 6 9 8 16 16 11 12 15 33 33 43 53 52 53 46 47 44 36
47 45 45 45 45 52 45 47 52 54 53 50 43 41 42 42 37 34 30 28 20 12 8 27 35 23 28 23 16 6 8 18 24 8 8 8 14 10 8 8 15 15 9 12 11 31 41 33 48 46 46 42 38 39
44 44 46 44 44 51 50 51 53 52 52 48 37 41 41 35 29 16 6 7 12 9 9 7 18 24 25 14 16 11 8 10 13 11 8 9 9 16 5 7 15 37 34 36 23 37 58 52 48 50 45 41 39 38
43 45 46 43 46 54 50 47 45 50 50 35 37 37 35 16 13 6 5 17 18 7 5 7 7 14 15 21 9 12 9 7 6 11 7 11 10 20 7 12 34 27 40 33 37 61 52 52 47 49 46 42 41 39
43 46 46 44 47 53 45 40 46 48 44 35 35 31 18 11 12 13 14 23 9 8 7 5 5 9 12 9 9 8 7 6 6 6 7 6 10 11 9 13 20 23 17 41 32 51 56 55 51 46 43 40 39 37
43 47 45 44 48 46 39 45 50 46 37 23 22 15 8 4 7 14 28 13 8 6 5 3 5 5 9 8 6 5 4 1 2 4 5 2 3 5 8 6 19 16 32 33 54 54 45 50 46 44 40 36 35 33
41 43 42 45 47 38 40 44 49 42 22 23 16 7 4 12 28 17 10 4 6 7 7 5 4 2 5 8 8 8 4 2 3 5 7 2 2 11 9 12 17 21 28 31 53 56 51 42 43 39 35 33 33 30
42 43 42 45 41 35 39 43 41 31 26 24 13 7 21 22 8 7 7 10 7 5 7 4 2 5 4 8 6 8 5 4 3 4 5 5 5 10 19 9 24 21 26 26 33 51 40 37 39 36 33 33 34 29
42 42 41 41 35 31 36 37 37 29 24 26 25 26 14 7 9 9 7 5 3 6 6 10 11 10 7 6 4 6 5 3 3 7 4 6 6 25 28 17 17 25 32 44 44 49 38 40 38 36 31 31 32 29
43 42 39 38 30 27 34 34 30 27 29 9 6 8 7 8 3 5 11 8 7 11 17 19 8 8 6 6 6 3 5 4 5 2 3 5 24 32 25 30 29 29 45 47 50 46 37 33 31 33 34 30 28 27
44 41 34 34 25 27 33 34 27 27 12 5 7 8 5 6 11 8 11 9 10 12 17 22 15 12 10 9 5 6 5 6 5 4 6 8 33 33 27 42 42 37 52 48 43 39 40 37 33 30 29 27 27 24
42 37 25 20 23 30 29 26 20 17 6 6 8 6 6 11 9 14 15 8 7 12 15 9 7 7 4 3 4 6 5 6 10 6 4 22 29 34 37 47 45 46 45 41 39 34 32 32 32 32 29 27 24 22
39 25 9 27 38 31 24 24 11 6 5 5 5 6 13 5 7 10 10 14 4 8 10 6 4 5 5 3 3 5 9 8 5 7 17 23 30 35 38 42 44 39 37 36 33 33 34 35 35 33 30 27 25 22
29 14 34 42 41 22 13 13 6 4 5 5 7 10 10 10 10 10 11 6 3 5 4 6 3 2 3 3 5 2 6 5 13 12 16 16 23 27 34 39 38 37 34 34 35 37 36 34 33 31 30 27 25 23
27 26 34 41 27 18 7 4 5 5 9 15 13 7 10 19 16 9 7 5 3 3 5 5 12 5 3 3 5 6 15 9 5 1 9 15 25 28 35 39 35 34 35 36 37 35 33 31 29 27 27 25 23 21
29 29 20 14 16 12 6 5 4 6 12 8 8 10 12 13 12 5 4 5 2 2 5 8 7 6 4 5 8 12 7 7 4 20 27 32 36 31 33 32 35 36 37 35 33 30 27 24 24 22 20 19 16 15
21 11 3 7 4 5 6 7 5 7 11 10 18 13 14 18 11 7 3 13 4 2 2 3 4 11 13 25 8 8 10 21 39 41 32 29 28 31 30 31 33 36 34 32 28 26 24 21 20 17 17 16 12 12
3 7 10 4 6 9 8 8 7 7 11 12 14 15 17 14 10 4 5 12 2 9 6 1 10 15 13 5 14 32 38 37 29 25 31 33 30 32 32 33 34 32 30 28 26 23 22 21 21 13 14 16 16 10
4 7 6 5 6 7 10 9 9 12 9 14 20 13 11 12 7 3 9 3 8 2 2 5 12 5 1 14 22 25 21 18 23 29 31 38 41 39 32 32 30 27 26 25 23 22 21 18 16 19 14 13 10 11
1 3 5 6 6 5 11 7 8 7 6 5 8 6 7 4 2 4 6 3 6 7 11 13 5 7 8 14 19 12 14 26 31 27 28 30 29 29 30 28 29 28 27 22 21 22 24 19 20 15 16 13 8 7
6 4 5 6 10 7 6 7 9 8 8 9 6 6 1 1 2 3 5 6 7 8 11 7 8 15 7 14 20 20 21 17 19 19 24 28 30 31 30 29 27 23 23 25 24 20 19 16 17 12 12 8 7 7
3 7 8 9 9 8 9 7 9 7 6 5 3 4 5 6 3 3 4 7 8 9 10 7 5 15 5 16 14 15 12 18 17 19 20 24 27 27 23 25 25 23 22 22 20 21 20 15 14 11 9 7 8 6
7 8 9 6 7 8 6 5 3 3 5 1 3 4 6 4 4 6 6 6 6 5 9 2 9 10 6 8 17 17 18 16 18 21 19 22 24 25 26 24 20 17 19 20 22 21 17 15 12 11 8 7 13 6
6 9 11 13 13 16 13 12 14 6 3 1 2 6 5 5 7 5 1 5 4 5 7 5 14 6 6 15 13 18 22 21 20 19 19 16 17 17 17 21 23 21 19 19 19 18 16 13 11 10 8 7 5 6
11 9 7 9 13 14 9 10 5 3 1 2 5 3 3 5 5 3 1 4 5 3 6 4 26 17 19 16 13 22 26 26 26 24 22 20 18 15 18 20 24 25 22 21 17 15 14 13 11 11 9 9 8 4
15 11 8 16 17 9 9 6 2 3 5 7 6 5 4 3 3 3 8 7 5 8 11 7 28 23 13 3 19 19 22 26 27 25 21 18 14 12 18 27 24 22 28 28 25 22 21 15 11 11 11 10 9 6
17 18 9 14 9 6 3 5 5 5 8 10 11 18 14 6 8 9 9 9 9 9 11 13 31 13 14 19 21 22 23 22 18 19 23 21 21 20 21 24 22 18 18 23 31 22 17 11 20 13 12 10 10 9
8 7 15 22 17 11 5 6 5 8 13 12 14 17 19 15 13 9 7 8 8 8 8 17 25 7 10 17 19 22 18 13 12 12 16 21 27 27 24 23 22 19 9 9 12 11 13 12 11 11 12 11 10 10
9 12 9 9 12 10 7 8 8 6 5 9 13 9 5 4 4 4 1 1 8 9 8 17 32 11 22 17 14 11 19 17 16 18 24 26 29 28 26 21 14 12 15 15 14 12 12 13 13 12 12 11 9 9
14 20 19 14 7 7 5 5 7 4 7 8 5 10 12 6 4 5 5 8 14 10 6 10 28 36 28 27 25 25 24 25 24 26 27 28 25 22 17 17 18 19 18 15 13 14 19 19 21 22 21 20 20 17
Wind_Direction_500mb
328 330 332 334 336 334 335 336 339 335 335 334 332 330 325 329 334 332 319 318 304 271 298 291 302 293 312 286 317 312 315 322 343 9 17 2 342 296 121 126 127 122 183 200 131 99 95 102 132 60 107 101 94 91
327 329 330 330 329 332 332 331 333 335 336 331 327 326 323 323 323 327 325 318 315 292 283 297 285 281 280 288 284 299 347 335 353 353 4 358 319 308 102 126 122 95 63 39 51 94 78 81 91 105 107 106 101 100
327 327 328 328 329 333 330 326 331 332 331 328 329 327 321 315 321 321 314 320 304 303 312 319 309 347 318 295 301 302 326 333 322 323 274 312 36 325 66 91 95 66 65 128 95 104 99 88 99 99 103 102 100 94
326 325 326 330 331 331 329 326 331 331 330 328 326 322 318 318 318 313 310 311 309 292 283 304 337 337 318 305 290 279 275 304 304 303 334 329 56 18 1 83 84 97 93 94 109 93 102 108 106 111 108 104 103 109
324 322 325 326 331 332 326 327 328 328 326 323 321 325 325 325 322 313 303 305 315 254 300 300 319 332 346 345 326 324 284 309 327 318 24 12 35 357 179 107 67 47 120 135 133 136 113 117 123 121 112 112 114 113
323 323 325 326 329 330 324 323 326 329 328 323 318 325 326 328 333 334 305 299 357 311 305 307 323 339 359 24 2 9 346 331 359 340 31 12 20 347 45 61 88 100 85 105 122 129 133 130 117 118 120 119 117 112
322 325 325 324 326 328 325 326 330 333 330 328 327 320 321 321 347 331 325 315 330 287 273 284 295 326 336 337 345 4 14 40 22 328 55 34 342 331 55 62 98 91 94 88 98 126 121 125 124 121 117 117 115 110
325 324 325 324 328 327 325 326 329 329 332 329 323 315 317 301 290 287 316 327 318 273 275 290 302 314 349 339 341 8 351 33 45 46 70 14 356 315 61 70 60 79 116 116 140 127 129 127 124 122 125 125 119 113
322 323 326 326 328 326 327 330 331 330 337 337 337 336 323 329 317 337 317 312 268 268 288 265 306 341 324 291 281 323 308 184 66 68 68 294 173 35 68 22 99 71 108 148 133 129 133 133 132 135 133 130 123 119
321 325 325 326 327 326 330 333 341 342 356 354 350 331 300 325 315 307 307 251 228 220 230 249 231 274 312 326 337 1 305 292 108 88 137 79 74 91 76 60 80 76 122 128 128 132 141 147 140 140 137 134 130 123
326 324 325 326 328 327 333 336 343 350 4 1 341 306 310 307 287 238 254 213 198 230 189 291 302 12 229 348 350 7 323 339 16 134 137 182 159 125 131 109 114 117 100 102 136 138 138 138 136 132 127 126 125 125
326 322 325 325 325 330 339 339 341 346 330 310 294 303 296 266 249 250 238 190 174 67 33 342 352 14 332 344 332 331 306 49 56 129 205 141 140 135 124 132 119 150 112 123 127 125 125 131 129 124 121 126 124 126
324 322 322 322 322 327 335 336 337 327 332 325 279 252 262 267 312 300 12 20 22 11 7 343 353 355 341 329 304 347 300 330 333 19 85 207 130 126 124 120 120 116 112 112 120 127 127 125 127 129 128 126 128 128
322 325 319 314 318 327 334 339 333 339 344 312 314 292 291 345 15 11 347 357 345 336 334 336 337 15 1 351 354 301 334 315 250 175 46 127 128 128 133 113 121 127 134 134 121 120 121 122 124 125 124 129 131 128
321 328 322 324 317 323 324 334 327 324 289 295 288 301 351 354 351 323 308 309 326 326 336 339 335 20 308 321 326 322 293 274 36 33 76 110 133 121 120 118 121 120 118 120 122 124 122 120 120 120 121 122 123 123
327 334 284 315 320 323 316 325 322 306 269 285 307 310 348 4 317 337 324 312 316 329 319 309 317 281 221 263 203 261 336 25 44 21 71 102 111 119 123 119 126 128 128 127 122 123 125 126 123 121 119 117 116 115
327 322 311 309 320 323 326 346 295 279 284 272 263 262 234 283 258 270 288 299 318 322 308 274 278 279 169 240 201 46 44 57 98 55 65 101 114 116 131 130 129 128 126 123 127 129 126 126 126 123 118 115 113 110
307 312 303 305 324 347 24 256 284 271 262 236 243 287 219 257 248 249 280 236 265 301 276 340 310 295 231 352 32 36 45 20 0 229 118 123 121 123 131 130 131 130 129 133 132 131 132 131 127 125 123 122 118 113
303 303 311 316 332 350 321 279 245 272 274 291 270 278 289 306 272 182 259 216 2 343 286 304 283 9 14 357 336 306 298 248 227 161 125 133 130 132 134 136 135 131 131 131 137 139 139 139 135 137 137 139 122 121
309 303 297 332 313 298 275 259 255 244 276 320 289 294 304 295 294 214 152 205 189 189 257 2 338 325 286 307 296 287 165 155 143 132 137 139 132 133 136 133 135 135 139 140 139 140 134 136 137 141 143 130 126 122
26 339 338 292 259 243 274 295 261 234 290 288 284 302 299 294 284 255 243 179 89 1 43 299 328 332 357 7 136 143 131 124 130 134 132 135 133 129 128 133 142 144 145 145 147 146 147 140 137 136 128 124 121 112
303 297 318 265 261 237 258 250 268 291 275 274 284 270 269 272 283 250 123 78 122 280 337 41 335 26 198 165 165 172 164 150 141 144 149 153 153 153 149 156 151 151 150 150 146 154 139 140 140 140 142 143 117 116
313 307 282 256 268 250 268 256 255 241 260 272 261 245 242 257 154 15 77 61 96 23 31 9 259 132 154 199 207 186 173 166 152 158 160 163 154 149 152 155 159 155 147 144 155 142 144 139 137 136 141 141 135 119
244 272 259 258 218 258 270 237 236 244 253 231 258 250 145 344 182 249 121 78 94 15 14 32 127 222 287 181 190 174 168 172 173 164 162 161 155 155 158 158 159 163 156 148 139 141 144 155 162 153 155 161 172 166
264 242 223 262 250 240 224 236 229 226 256 256 269 318 357 335 251 209 86 88 17 17 9 23 59 173 346 176 155 151 148 150 151 150 160 160 155 148 151 149 142 142 141 144 149 151 156 159 159 173 180 197 190 182
244 223 194 245 227 230 257 273 251 263 278 270 359 315 329 311 276 69 61 17 358 4 1 67 122 193 176 178 156 154 148 152 157 159 151 156 154 151 141 137 141 148 158 163 163 166 166 169 176 184 191 208 211 187
264 254 228 253 274 301 295 300 287 265 271 103 346 9 321 309 37 76 60 352 308 310 338 208 172 158 8 155 170 141 139 142 140 143 155 150 146 156 161 169 169 166 169 170 174 180 183 188 190 193 195 185 178 190
252 281 272 281 253 265 276 284 268 213 104 139 202 238 32 350 44 117 333 347 318 254 289 209 165 136 116 128 174 141 133 145 135 131 124 112 114 125 152 167 172 170 176 172 177 187 193 198 198 194 198 197 193 182
230 236 273 268 259 266 273 265 303 66 1 337 342 355 3 49 161 320 318 296 312 248 264 281 162 165 178 249 173 164 158 156 159 164 160 157 150 138 155 168 164 170 189 191 181 177 170 167 191 195 181 181 183 168
258 226 223 263 252 254 306 351 349 356 325 328 304 295 293 284 281 287 289 282 271 255 240 253 176 185 210 204 181 170 171 180 203 212 214 195 183 168 156 155 158 156 157 188 197 203 263 247 202 194 174 167 171 170
272 246 243 258 280 308 5 336 310 316 319 312 308 290 288 295 293 296 279 267 213 210 234 193 167 195 221 198 197 185 182 189 186 191 189 166 156 156 159 159 154 155 166 182 170 168 172 162 168 171 167 172 185 160
236 235 251 264 263 263 298 331 312 288 300 302 297 265 278 272 258 217 264 171 193 202 245 193 180 155 131 127 152 153 178 161 137 131 141 150 154 155 159 169 192 166 158 157 159 173 167 179 177 168 169 174 160 168
225 242 253 260 256 267 203 229 242 261 234 254 267 256 232 227 236 189 182 229 209 171 214 209 198 201 176 156 145 149 148 150 156 163 168 163 163 162 151 146 154 153 152 153 153 167 179 181 183 186 181 191 194 200
Wind_Speed_850mb
49 50 47 44 47 52 50 45 46 44 46 47 49 47 39 35 38 43 44 30 22 12 53 18 21 33 40 22 9 32 18 6 6 10 10 7 6 9 22 24 20 11 14 14 9 13 8 9 15 4 27 36 43 47
49 48 45 44 46 52 49 44 48 47 49 50 50 46 35 33 37 42 43 31 27 27 49 55 41 40 38 40 32 19 22 15 11 6 10 5 5 10 24 23 20 11 10 6 8 13 22 42 43 52 48 47 44 48
49 48 45 44 45 49 52 46 50 52 49 50 52 45 37 38 37 38 47 41 23 22 43 17 9 15 22 21 18 11 11 24 21 34 7 5 5 10 9 18 25 12 18 11 17 22 32 44 59 58 53 53 48 44
49 45 45 45 47 52 52 44 50 52 51 50 48 41 40 41 42 38 39 36 30 14 8 10 16 31 27 20 23 25 30 31 35 34 4 4 6 9 8 16 16 11 12 15 33 33 43 53 52 53 46 47 44 36
47 45 45 45 45 52 45 47 52 54 53 50 43 41 42 42 37 34 30 28 20 12 8 27 35 23 28 23 16 6 8 18 24 8 8 8 14 10 8 8 15 15 9 12 11 31 41 33 48 46 46 42 38 39
44 44 46 44 44 51 50 51 53 52 52 48 37 41 41 35 29 16 6 7 12 9 9 7 18 24 25 14 16 11 8 10 13 11 8 9 9 16 5 7 15 37 34 36 23 37 58 52 48 50 45 41 39 38
43 45 46 43 46 54 50 47 45 50 50 35 37 37 35 16 13 6 5 17 18 7 5 7 7 14 15 21 9 12 9 7 6 11 7 11 10 20 7 12 34 27 40 33 37 61 52 52 47 49 46 42 41 39
43 46 46 44 47 53 45 40 46 48 44 35 35 31 18 11 12 13 14 23 9 8 7 5 5 9 12 9 9 8 7 6 6 6 7 6 10 11 9 13 20 23 17 41 32 51 56 55 51 46 43 40 39 37
43 47 45 44 48 46 39 45 50 46 37 23 22 15 8 4 7 14 28 13 8 6 5 3 5 5 9 8 6 5 4 1 2 4 5 2 3 5 8 6 19 16 32 33 54 54 45 50 46 44 40 36 35 33
41 43 42 45 47 38 40 44 49 42 22 23 16 7 4 12 28 17 10 4 6 7 7 5 4 2 5 8 8 8 4 2 3 5 7 2 2 11 9 12 17 21 28 31 53 56 51 42 43 39 35 33 33 30
42 43 42 45 41 35 39 43 41 31 26 24 13 7 21 22 8 7 7 10 7 5 7 4 2 5 4 8 6 8 5 4 3 4 5 5 5 10 19 9 24 21 26 26 33 51 40 37 39 36 33 33 34 29
42 42 41 41 35 31 36 37 37 29 24 26 25 26 14 7 9 9 7 5 3 6 6 10 11 10 7 6 4 6 5 3 3 7 4 6 6 25 28 17 17 25 32 44 44 49 38 40 38 36 31 31 32 29
43 42 39 38 30 27 34 34 30 27 29 9 6 8 7 8 3 5 11 8 7 11 17 19 8 8 6 6 6 3 5 4 5 2 3 5 24 32 25 30 29 29 45 47 50 46 37 33 31 33 34 30 28 27
44 41 34 34 25 27 33 34 27 27 12 5 7 8 5 6 11 8 11 9 10 12 17 22 15 12 10 9 5 6 5 6 5 4 6 8 33 33 27 42 42 37 52 48 43 39 40 37 33 30 29 27 27 24
42 37 25 20 23 30 29 26 20 17 6 6 8 6 6 11 9 14 15 8 7 12 15 9 7 7 4 3 4 6 5 6 10 6 4 22 29 34 37 47 45 46 45 41 39 34 32 32 32 32 29 27 24 22
39 25 9 27 38 31 24 24 11 6 5 5 5 6 13 5 7 10 10 14 4 8 10 6 4 5 5 3 3 5 9 8 5 7 17 23 30 35 38 42 44 39 37 36 33 33 34 35 35 33 30 27 25 22
29 14 34 42 41 22 13 13 6 4 5 5 7 10 10 10 10 10 11 6 3 5 4 6 3 2 3 3 5 2 6 5 13 12 16 16 23 27 34 39 38 37 34 34 35 37 36 34 33 31 30 27 25 23
27 26 34 41 27 18 7 4 5 5 9 15 13 7 10 19 16 9 7 5 3 3 5 5 12 5 3 3 5 6 15 9 5 1 9 15 25 28 35 39 35 34 35 36 37 35 33 31 29 27 27 25 23 21
29 29 20 14 16 12 6 5 4 6 12 8 8 10 12 13 12 5 4 5 2 2 5 8 7 6 4 5 8 12 7 7 4 20 27 32 36 31 33 32 35 36 37 35 33 30 27 24 24 22 20 19 16 15
21 11 3 7 4 5 6 7 5 7 11 10 18 13 14 18 11 7 3 13 4 2 2 3 4 11 13 25 8 8 10 21 39 41 32 29 28 31 30 31 33 36 34 32 28 26 24 21 20 17 17 16 12 12
3 7 10 4 6 9 8 8 7 7 11 12 14 15 17 14 10 4 5 12 2 9 6 1 10 15 13 5 14 32 38 37 29 25 31 33 30 32 32 33 34 32 30 28 26 23 22 21 21 13 14 16 16 10
4 7 6 5 6 7 10 9 9 12 9 14 20 13 11 12 7 3 9 3 8 2 2 5 12 5 1 14 22 25 21 18 23 29 31 38 41 39 32 32 30 27 26 25 23 22 21 18 16 19 14 13 10 11
1 3 5 6 6 5 11 7 8 7 6 5 8 6 7 4 2 4 6 3 6 7 11 13 5 7 8 14 19 12 14 26 31 27 28 30 29 29 30 28 29 28 27 22 21 22 24 19 20 15 16 13 8 7
6 4 5 6 10 7 6 7 9 8 8 9 6 6 1 1 2 3 5 6 7 8 11 7 8 15 7 14 20 20 21 17 19 19 24 28 30 31 30 29 27 23 23 25 24 20 19 16 17 12 12 8 7 7
3 7 8 9 9 8 9 7 9 7 6 5 3 4 5 6 3 3 4 7 8 9 10 7 5 15 5 16 14 15 12 18 17 19 20 24 27 27 23 25 25 23 22 22 20 21 20 15 14 11 9 7 8 6
7 8 9 6 7 8 6 5 3 3 5 1 3 4 6 4 4 6 6 6 6 5 9 2 9 10 6 8 17 17 18 16 18 21 19 22 24 25 26 24 20 17 19 20 22 21 17 15 12 11 8 7 13 6
6 9 11 13 13 16 13 12 14 6 3 1 2 6 5 5 7 5 1 5 4 5 7 5 14 6 6 15 13 18 22 21 20 19 19 16 17 17 17 21 23 21 19 19 19 18 16 13 11 10 8 7 5 6
11 9 7 9 13 14 9 10 5 3 1 2 5 3 3 5 5 3 1 4 5 3 6 4 26 17 19 16 13 22 26 26 26 24 22 20 18 15 18 20 24 25 22 21 17 15 14 13 11 11 9 9 8 4
15 11 8 16 17 9 9 6 2 3 5 7 6 5 4 3 3 3 8 7 5 8 11 7 28 23 13 3 19 19 22 26 27 25 21 18 14 12 18 27 24 22 28 28 25 22 21 15 11 11 11 10 9 6
17 18 9 14 9 6 3 5 5 5 8 10 11 18 14 6 8 9 9 9 9 9 11 13 31 13 14 19 21 22 23 22 18 19 23 21 21 20 21 24 22 18 18 23 31 22 17 11 20 13 12 10 10 9
8 7 15 22 17 11 5 6 5 8 13 12 14 17 19 15 13 9 7 8 8 8 8 17 25 7 10 17 19 22 18 13 12 12 16 21 27 27 24 23 22 19 9 9 12 11 13 12 11 11 12 11 10 10
9 12 9 9 12 10 7 8 8 6 5 9 13 9 5 4 4 4 1 1 8 9 8 17 32 11 22 17 14 11 19 17 16 18 24 26 29 28 26 21 14 12 15 15 14 12 12 13 13 12 12 11 9 9
14 20 19 14 7 7 5 5 7 4 7 8 5 10 12 6 4 5 5 8 14 10 6 10 28 36 28 27 25 25 24 25 24 26 27 28 25 22 17 17 18 19 18 15 13 14 19 19 21 22 21 20 20 17
Wind_Direction_850mb
328 330 332 334 336 334 335 336 339 335 335 334 332 330 325 329 334 332 319 318 304 271 298 291 302 293 312 286 317 312 315 322 343 9 17 2 342 296 121 126 127 122 183 200 131 99 95 102 132 60 107 101 94 91
327 329 330 330 329 332 332 331 333 335 336 331 327 326 323 323 323 327 325 318 315 292 283 297 285 281 280 288 284 299 347 335 353 353 4 358 319 308 102 126 122 95 63 39 51 94 78 81 91 105 107 106 101 100
327 327 328 328 329 333 330 326 331 332 331 328 329 327 321 315 321 321 314 320 304 303 312 319 309 347 318 295 301 302 326 333 322 323 274 312 36 325 66 91 95 66 65 128 95 104 99 88 99 99 103 102 100 94
326 325 326 330 331 331 329 326 331 331 330 328 326 322 318 318 318 313 310 311 309 292 283 304 337 337 318 305 290 279 275 304 304 303 334 329 56 18 1 83 84 97 93 94 109 93 102 108 106 111 108 104 103 109
324 322 325 326 331 332 326 327 328 328 326 323 321 325 325 325 322 313 303 305 315 254 300 300 319 332 346 345 326 324 284 309 327 318 24 12 35 357 179 107 67 47 120 135 133 136 113 117 123 121 112 112 114 113
323 323 325 326 329 330 324 323 326 329 328 323 318 325 326 328 333 334 305 299 357 311 305 307 323 339 359 24 2 9 346 331 359 340 31 12 20 347 45 61 88 100 85 105 122 129 133 130 117 118 120 119 117 112
322 325 325 324 326 328 325 326 330 333 330 328 327 320 321 321 347 331 325 315 330 287 273 284 295 326 336 337 345 4 14 40 22 328 55 34 342 331 55 62 98 91 94 88 98 126 121 125 124 121 117 117 115 110
325 324 325 324 328 327 325 326 329 329 332 329 323 315 317 301 290 287 316 327 318 273 275 290 302 314 349 339 341 8 351 33 45 46 70 14 356 315 61 70 60 79 116 116 140 127 129 127 124 122 125 125 119 113
322 323 326 326 328 326 327 330 331 330 337 337 337 336 323 329 317 337 317 312 268 268 288 265 306 341 324 291 281 323 308 184 66 68 68 294 173 35 68 22 99 71 108 148 133 129 133 133 132 135 133 130 123 119
321 325 325 326 327 326 330 333 341 342 356 354 350 331 300 325 315 307 307 251 228 220 230 249 231 274 312 326 337 1 305 292 108 88 137 79 74 91 76 60 80 76 122 128 128 132 141 147 140 140 137 134 130 123
326 324 325 326 328 327 333 336 343 350 4 1 341 306 310 307 287 238 254 213 198 230 189 291 302 12 229 348 350 7 323 339 16 134 137 182 159 125 131 109 114 117 100 102 136 138 138 138 136 132 127 126 125 125
326 322 325 325 325 330 339 339 341 346 330 310 294 303 296 266 249 250 238 190 174 67 33 342 352 14 332 344 332 331 306 49 56 129 205 141 140 135 124 132 119 150 112 123 127 125 125 131 129 124 121 126 124 126
324 322 322 322 322 327 335 336 337 327 332 325 279 252 262 267 312 300 12 20 22 11 7 343 353 355 341 329 304 347 300 330 333 19 85 207 130 126 124 120 120 116 112 112 120 127 127 125 127 129 128 126 128 128
322 325 319 314 318 327 334 339 333 339 344 312 314 292 291 345 15 11 347 357 345 336 334 336 337 15 1 351 354 301 334 315 250 175 46 127 128 128 133 113 121 127 134 134 121 120 121 122 124 125 124 129 131 128
321 328 322 324 317 323 324 334 327 324 289 295 288 301 351 354 351 323 308 309 326 326 336 339 335 20 308 321 326 322 293 274 36 33 76 110 133 121 120 118 121 120 118 120 122 124 122 120 120 120 121 122 123 123
327 334 284 315 320 323 316 325 322 306 269 285 307 310 348 4 317 337 324 312 316 329 319 309 317 281 221 263 203 261 336 25 44 21 71 102 111 119 123 119 126 128 128 127 122 123 125 126 123 121 119 117 116 115
327 322 311 309 320 323 326 346 295 279 284 272 263 262 234 283 258 270 288 299 318 322 308 274 278 279 169 240 201 46 44 57 98 55 65 101 114 116 131 130 129 128 126 123 127 129 126 126 126 123 118 115 113 110
307 312 303 305 324 347 24 256 284 271 262 236 243 287 219 257 248 249 280 236 265 301 276 340 310 295 231 352 32 36 45 20 0 229 118 123 121 123 131 130 131 130 129 133 132 131 132 131 127 125 123 122 118 113
303 303 311 316 332 350 321 279 245 272 274 291 270 278 289 306 272 182 259 216 2 343 286 304 283 9 14 357 336 306 298 248 227 161 125 133 130 132 134 136 135 131 131 131 137 139 139 139 135 137 137 139 122 121
309 303 297 332 313 298 275 259 255 244 276 320 289 294 304 295 294 214 152 205 189 189 257 2 338 325 286 307 296 287 165 155 143 132 137 139 132 133 136 133 135 135 139 140 139 140 134 136 137 141 143 130 126 122
26 339 338 292 259 243 274 295 261 234 290 288 284 302 299 294 284 255 243 179 89 1 43 299 328 332 357 7 136 143 131 124 130 134 132 135 133 129 128 133 142 144 145 145 147 146 147 140 137 136 128 124 121 112
303 297 318 265 261 237 258 250 268 291 275 274 284 270 269 272 283 250 123 78 122 280 337 41 335 26 198 165 165 172 164 150 141 144 149 153 153 153 149 156 151 151 150 150 146 154 139 140 140 140 142 143 117 116
313 307 282 256 268 250 268 256 255 241 260 272 261 245 242 257 154 15 77 61 96 23 31 9 259 132 154 199 207 186 173 166 152 158 160 163 154 149 152 155 159 155 147 144 155 142 144 139 137 136 141 141 135 119
244 272 259 258 218 258 270 237 236 244 253 231 258 250 145 344 182 249 121 78 94 15 14 32 127 222 287 181 190 174 168 172 173 164 162 161 155 155 158 158 159 163 156 148 139 141 144 155 162 153 155 161 172 166
264 242 223 262 250 240 224 236 229 226 256 256 269 318 357 335 251 209 86 88 17 17 9 23 59 173 346 176 155 151 148 150 151 150 160 160 155 148 151 149 142 142 141 144 149 151 156 159 159 173 180 197 190 182
244 223 194 245 227 230 257 273 251 263 278 270 359 315 329 311 276 69 61 17 358 4 1 67 122 193 176 178 156 154 148 152 157 159 151 156 154 151 141 137 141 148 158 163 163 166 166 169 176 184 191 208 211 187
264 254 228 253 274 301 295 300 287 265 271 103 346 9 321 309 37 76 60 352 308 310 338 208 172 158 8 155 170 141 139 142 140 143 155 150 146 156 161 169 169 166 169 170 174 180 183 188 190 193 195 185 178 190
252 281 272 281 253 265 276 284 268 213 104 139 202 238 32 350 44 117 333 347 318 254 289 209 165 136 116 128 174 141 133 145 135 131 124 112 114 125 152 167 172 170 176 172 177 187 193 198 198 194 198 197 193 182
230 236 273 268 259 266 273 265 303 66 1 337 342 355 3 49 161 320 318 296 312 248 264 281 162 165 178 249 173 164 158 156 159 164 160 157 150 138 155 168 164 170 189 191 181 177 170 167 191 195 181 181 183 168
258 226 223 263 252 254 306 351 349 356 325 328 304 295 293 284 281 287 289 282 271 255 240 253 176 185 210 204 181 170 171 180 203 212 214 195 183 168 156 155 158 156 157 188 197 203 263 247 202 194 174 167 171 170
272 246 243 258 280 308 5 336 310 316 319 312 308 290 288 295 293 296 279 267 213 210 234 193 167 195 221 198 197 185 182 189 186 191 189 166 156 156 159 159 154 155 166 182 170 168 172 162 168 171 167 172 185 160
236 235 251 264 263 263 298 331 312 288 300 302 297 265 278 272 258 217 264 171 193 202 245 193 180 155 131 127 152 153 178 161 137 131 141 150 154 155 159 169 192 166 158 157 159 173 167 179 177 168 169 174 160 168
225 242 253 260 256 267 203 229 242 261 234 254 267 256 232 227 236 189 182 229 209 171 214 209 198 201 176 156 145 149 148 150 156 163 168 163 163 162 151 146 154 153 152 153 153 167 179 181 183 186 181 191 194 200